EW6987 Weather Reports


time (UTC)temp
F
wind
direction
speed
knots
gust
knots
rain 1hr
in
rain 24hr
in
rain mn
in
humidity
%
barometer
mb
20260508184559 60 119 3.5 7.0 0.00 0.09 0.09 66 1016.4
20260508183056 60 208 2.6 10.4 0.00 0.09 0.09 63 1016.3
20260508181607 60 101 2.6 8.7 0.00 0.09 0.09 69 1016.7
20260508180103 59 207 2.6 8.7 0.00 0.09 0.09 69 1016.7
20260508174602 59 196 5.2 11.3 0.00 0.09 0.09 68 1017.0
20260508173046 59 245 2.6 11.3 0.00 0.09 0.09 70 1017.0
20260508171543 58 198 2.6 9.6 0.00 0.09 0.09 73 1017.2
20260508170040 56 219 2.6 7.0 0.00 0.09 0.09 75 1017.7
20260508164538 56 323 1.7 5.2 0.00 0.09 0.09 77 1017.9
20260508163039 55 354 0.9 3.5 0.00 0.09 0.09 78 1018.1
20260508161537 54 300 0.9 2.6 0.00 0.09 0.09 78 1018.2
20260508160034 55 231 0.0 2.6 0.00 0.09 0.09 78 1018.2
20260508154534 55 269 0.9 2.6 0.00 0.09 0.09 77 1018.3
20260508153034 54 332 0.0 3.5 0.00 0.09 0.09 80 1018.1
20260508151533 55 338 1.7 4.3 0.00 0.09 0.09 78 1018.3
20260508150034 55 279 0.9 5.2 0.00 0.09 0.09 75 1018.3
20260508144530 55 277 1.7 4.3 0.00 0.09 0.09 75 1018.2
20260508143027 54 264 2.6 7.0 0.00 0.09 0.09 76 1018.2
20260508141527 54 264 2.6 7.8 0.00 0.09 0.09 76 1018.3
20260508140030 54 251 2.6 6.1 0.00 0.09 0.09 77 1018.3
20260508134527 53 257 2.6 7.0 0.00 0.09 0.09 78 1018.4
20260508133020 53 269 0.9 7.8 0.00 0.09 0.09 79 1018.4
20260508131518 52 269 1.7 7.0 0.00 0.09 0.09 80 1018.5
20260508130016 52 249 1.7 5.2 0.00 0.09 0.09 78 1018.5
20260508124513 51 272 0.0 5.2 0.01 0.09 0.09 81 1018.7
20260508123011 50 251 0.0 3.5 0.07 0.09 0.09 85 1018.5
20260508121510 49 245 0.9 2.6 0.09 0.09 0.09 88 1018.4
20260508120011 48 211 0.0 2.6 0.09 0.09 0.09 87 1018.3
20260508114507 49 252 0.0 2.6 0.06 0.06 0.06 84 1018.1
20260508113014 50 223 0.0 5.2 0.02 0.02 0.02 80 1017.6
20260508111508 50 240 2.6 6.1 0.00 0.00 0.00 78 1017.7
20260508110013 50 188 0.9 8.7 0.00 0.00 0.00 78 1017.7
20260508104504 50 221 4.3 10.4 0.00 0.00 0.00 78 1017.6
20260508103004 50 172 3.5 7.0 0.00 0.00 0.00 80 1017.5
20260508101504 50 198 3.5 6.1 0.00 0.00 0.00 81 1017.5
20260508100002 49 207 1.7 5.2 0.00 0.00 0.00 82 1017.6
20260508094502 49 179 2.6 7.8 0.00 0.00 0.00 82 1017.6
20260508093001 48 199 3.5 7.0 0.00 0.00 0.00 83 1017.6
20260508091605 48 205 2.6 7.0 0.00 0.00 0.00 84 1017.7
20260508090100 48 207 2.6 7.0 0.00 0.00 0.00 84 1017.6
20260508084558 48 201 1.7 7.0 0.00 0.00 0.00 84 1017.7
20260508083056 48 205 3.5 6.1 0.00 0.00 0.00 85 1017.7
20260508081617 48 226 1.7 6.1 0.00 0.00 0.00 85 1017.9
20260508080054 49 213 2.6 7.8 0.00 0.00 0.00 84 1017.9
20260508074552 49 162 4.3 9.6 0.00 0.00 0.00 83 1017.9
20260508073052 49 207 2.6 7.8 0.00 0.00 0.00 82 1017.9
20260508071552 49 182 4.3 11.3 0.00 0.00 0.00 81 1018.1
20260508070039 48 227 0.9 6.1 0.00 0.00 0.00 81 1018.3
20260508064537 49 190 1.7 7.8 0.00 0.00 0.00 79 1018.3
20260508063047 49 205 1.7 6.1 0.00 0.00 0.00 78 1018.3
20260508061539 49 143 5.2 9.6 0.00 0.00 0.00 76 1018.3
20260508060035 49 201 0.0 8.7 0.00 0.00 0.00 75 1018.4
20260508054531 50 226 2.6 7.8 0.00 0.00 0.00 74 1018.4
20260508053028 50 198 4.3 13.9 0.00 0.00 0.00 72 1018.6
20260508051530 49 223 3.5 8.7 0.00 0.00 0.00 72 1018.5
20260508050023 50 210 0.9 5.2 0.00 0.00 0.00 72 1018.6
20260508044527 50 172 2.6 5.2 0.00 0.00 0.00 72 1018.6
20260508043022 50 191 1.7 4.3 0.00 0.00 0.00 72 1018.7
20260508041518 51 145 1.7 7.0 0.00 0.00 0.00 70 1018.6
20260508040014 51 181 1.7 5.2 0.00 0.00 0.00 69 1018.7
20260508034514 51 228 2.6 8.7 0.00 0.00 0.00 67 1018.8
20260508033015 52 212 0.9 7.8 0.00 0.00 0.00 66 1018.8
20260508031513 52 182 2.6 8.7 0.00 0.00 0.00 65 1018.7
20260508030012 52 199 6.1 13.0 0.00 0.00 0.00 64 1018.7
20260508024521 52 222 2.6 7.8 0.00 0.00 0.00 65 1019.1
20260508023017 52 193 5.2 13.0 0.00 0.00 0.00 64 1019.0
20260508021512 52 195 6.1 13.0 0.00 0.00 0.00 61 1018.9
20260508020010 52 226 4.3 7.8 0.00 0.00 0.00 59 1018.8
20260508014510 53 240 2.6 9.6 0.00 0.00 0.00 57 1018.8
20260508013009 53 233 1.7 10.4 0.00 0.00 0.00 56 1018.6
20260508011508 51 193 0.0 0.0 0.00 0.00 0.00 61 1018.3
20260508010007 50 252 0.0 0.0 0.00 0.00 0.00 63 1018.1
20260508004506 51 252 0.0 0.0 0.00 0.00 0.00 61 1017.9
20260508003006 52 252 0.0 0.0 0.00 0.00 0.00 56 1017.9
20260508001506 54 252 0.0 0.0 0.00 0.00 0.00 52 1017.9
20260508000005 55 214 0.0 2.6 0.00 0.00 0.00 47 1017.8
20260507234507 56 253 0.0 3.5 0.00 0.00 0.00 44 1017.8
20260507233006 56 244 0.9 4.3 0.00 0.00 0.00 46 1017.8
20260507231503 57 252 0.9 4.3 0.00 0.00 0.00 43 1017.9
20260507230003 57 226 2.6 6.1 0.00 0.00 0.00 42 1018.0
20260507224610 57 263 0.9 7.8 0.00 0.00 0.00 46 1018.1
20260507223059 57 246 2.6 8.7 0.00 0.00 0.00 43 1018.2
20260507221558 57 273 0.9 8.7 0.00 0.00 0.00 45 1018.2
20260507220057 57 186 4.3 12.2 0.00 0.00 0.00 41 1018.3
20260507214604 57 276 1.7 11.3 0.00 0.00 0.00 47 1018.2
20260507213052 57 273 2.6 9.6 0.00 0.00 0.00 46 1018.3
20260507211551 57 288 3.5 13.9 0.00 0.00 0.00 44 1018.3
20260507210055 57 278 1.7 12.2 0.00 0.00 0.00 47 1018.2
20260507204547 56 308 3.5 12.2 0.00 0.00 0.00 44 1018.3
20260507203102 56 258 5.2 11.3 0.00 0.00 0.00 42 1018.4
20260507201555 56 266 5.2 10.4 0.00 0.00 0.00 43 1018.5
20260507200058 56 279 6.1 16.5 0.00 0.00 0.00 43 1018.5
20260507194538 57 280 3.5 7.8 0.00 0.00 0.00 45 1018.5
20260507193044 57 221 5.2 10.4 0.00 0.00 0.00 46 1018.7
20260507191535 56 240 6.1 11.3 0.00 0.00 0.00 47 1018.8
20260507190033 55 231 5.2 12.2 0.00 0.00 0.00 46 1018.8